Volver al catálogo

DELTA 1 DEB

ActivoSSO
NORAD 10868·DEBRIS·🇺🇸 United States

Lanzado Jul 29, 1976 desde Vandenberg Space Force Base

Loading…

Próximos Pases (próximas 24 horas)

TLE

ActualizadoSource: Space-Track

Época: Sep 13, 2026, 10:54 UTC

1 10868U 76077CW  26256.45417334  .00000381  00000-0  31600-2 0  9996
2 10868 102.4017 104.4973 0102091 271.4168 164.8735 12.39696619253781

Sigue DELTA 1 DEB en tiempo real con AllMySat

Download on the App Store